Overview Statistics Trail Chart Weather Telemetry Raw packets
 

This is the latest recevied weather packets stored in our database for station/object IR9AK-10. If no packets are shown the sender has not sent any weather packets the latest 10 day(s).

<< 54 55 56 57 >>
Time Temp. Humidity Pressure Rain* Wind** Luminosity Snow
1787760214 45° C 24% 1059.7 hPa - - - -
1787759616 45° C 24% 1059.6 hPa - - - -
1787759016 45.56° C 25% 1059.4 hPa - - - -
1787758417 45° C 24% 1059.4 hPa - - - -
1787757818 45.56° C 24% 1059.4 hPa - - - -
1787757219 45.56° C 24% 1059.3 hPa - - - -
1787756619 46.11° C 23% 1059.3 hPa - - - -
1787756020 46.67° C 24% 1059.3 hPa - - - -
1787755420 47.22° C 23% 1059.3 hPa - - - -
1787754822 47.22° C 23% 1059.4 hPa - - - -
1787754223 46.11° C 24% 1059.4 hPa - - - -
1787753622 45.56° C 24% 1059.5 hPa - - - -
1787753024 45.56° C 24% 1059.4 hPa - - - -
1787752425 45.56° C 24% 1059.5 hPa - - - -
1787751825 45.56° C 25% 1059.6 hPa - - - -
1787751225 45.56° C 25% 1059.7 hPa - - - -
1787750626 45° C 26% 1059.8 hPa - - - -
1787750087 45° C 26% 1060 hPa - - - -
1787750028 45° C 26% 1060 hPa - - - -
1787749464 44.44° C 26% 1060.1 hPa - - - -
1787749428 44.44° C 26% 1060.1 hPa - - - -
1787748830 44.44° C 28% 1060 hPa - - - -
1787748231 45° C 26% 1060.1 hPa - - - -
1787747630 44.44° C 34% 1060.2 hPa - - - -

* Rain since midnight (hover to see other rain measurements)
** Current wind speed in m/s (hover to see current wind gust speed)